Terminal Aerodrome Forecast
Issued by NWS

Home | Current Version | Previous Version | Text Only | Print | Product List | Glossary On
Versions: 1 2 3 4 5 6 7 8 9 10 11 12
000
FTUS42 TJSJ 300500
TAFNCM
TAF
TNCM 300534Z 3006/0106 11007KT P6SM FEW020
     FM301300 13010KT P6SM SCT022=

USA.gov is the U.S. government's official web portal to all federal, state and local government web resources and services.